Starlink 5303

operational
NORAD ID: 55630 Int'l Des: 2023-021 Owner: SPXS Country: US Constellation: starlink
LEOCIRCULAR

Über Starlink 5303

Beschreibung wird geladen...

Live-Position

3D-Globus wird geladen...

Nächste Überflüge

Höhenverlauf

Altitude vs Time

uPlot chart will show altitude changes over time

Zweizeiliger Elementsatz

1 55630U 23021C 25304.02124537 -.00001081 00000-0 -82841-4 0 9994
2 55630 69.9990 171.4571 0002803 254.7917 105.2932 14.98326925148876
Epoch: 31. Okt. 2025 • Age: 20 hours

Aktueller Status

Höhe 574.5 km
Geschwindigkeit 7.58 km/s
Subsatellitenpunkt 22.18°N, 6°W
Startdatum 17. Feb. 2023
Alter 2.7 years
Typ internet

Technische Details

Klassifizierung Payload
Masse 305.00 kg
Trockenmasse 290.00 kg
Gesamtmasse 305.00 kg
Länge 0.20 m
Durchmesser 2.80 m
Spannweite 9.00 m
Form Box + pan
Hersteller SPXS
Bus-Typ Starlink
Phasenstatus In Orbit
Besitzer/Staat SPXS/US

Große Konstellationen

Loading constellations...